K6PZB Graton CA US current weather conditions

sailwx.info

Wind from 175

Air temperature 12.2° C
Dewpoint 8.1° C

Last reported at 2019-Dec-10 23:55 UTC.
Time now 2019-Dec-11 00:31 UTC

Location: N 38°26' W 122°52'.
View on Google Maps.

See reports from other nearby stations

  
Tides and Currents Weather Stations Pressure Air Temp Water Temp Dewpoint Dewpoint Depression Visibility Wind Speed Wind Dir Waves Ship Positions
date/time (UTC)wind fromknots sea level pressurealtimeterstation pressurevisibilityair tempwater tempwave heightnotes
2019-Dec-10 23:55 175 12.2
2019-Dec-10 23:50 175 12.2
2019-Dec-10 23:40 170 12.2
2019-Dec-10 23:35 174 12.2
2019-Dec-10 23:30 174 12.2
2019-Dec-10 23:20 174 12.2
2019-Dec-10 23:15 174 12.2
2019-Dec-10 23:05 184 12.8
2019-Dec-10 22:50 184 12.8
2019-Dec-10 22:45 184 12.8
2019-Dec-10 22:40 184 12.8
2019-Dec-10 22:30 204 12.8
2019-Dec-10 22:20 108 12.8
2019-Dec-10 22:15 108 12.8
2019-Dec-10 22:05 108 12.8
2019-Dec-10 22:00 108 12.8
2019-Dec-10 21:55 108 12.8
2019-Dec-10 21:40 108 12.8
2019-Dec-10 21:35 108 12.8
2019-Dec-10 21:30 108 12.8
2019-Dec-10 21:25 160 12.8
2019-Dec-10 21:00 162 12.2
2019-Dec-10 20:55 162 12.2
2019-Dec-10 20:50 162 12.2
2019-Dec-10 20:45 162 12.2
2019-Dec-10 20:35 162 12.2
2019-Dec-10 20:10 162 11.7
2019-Dec-10 20:05 162 11.7
2019-Dec-10 19:55 162 11.7
2019-Dec-10 19:40 162 11.7
2019-Dec-10 19:35 162 11.7
2019-Dec-10 19:25 162 11.7
2019-Dec-10 19:20 162 11.7
2019-Dec-10 19:15 162 11.1
2019-Dec-10 19:10 162 11.1
2019-Dec-10 19:05 162 11.1
2019-Dec-10 19:00 162 11.1
2019-Dec-10 18:55 162 11.1
2019-Dec-10 18:45 162 11.1
2019-Dec-10 18:40 162 11.1
2019-Dec-10 18:25 162 10.6
2019-Dec-10 18:15 162 10.6
2019-Dec-10 18:10 161 10.6
2019-Dec-10 18:05 162 10.6
2019-Dec-10 17:55 161 10.6
2019-Dec-10 17:50 161 10.0
2019-Dec-10 17:40 162 10.0
2019-Dec-10 17:30 162 10.0
2019-Dec-10 17:25 162 10.0
2019-Dec-10 17:20 162 10.0
2019-Dec-10 17:15 162 10.0
2019-Dec-10 17:10 162 10.0
2019-Dec-10 17:05 162 10.0
2019-Dec-10 16:35 162 10.0
2019-Dec-10 16:25 162 10.0
2019-Dec-10 16:20 162 10.0
2019-Dec-10 16:15 162 10.0
2019-Dec-10 16:00 162 10.0
2019-Dec-10 15:55 162 10.0
2019-Dec-10 15:50 162 10.0
2019-Dec-10 15:45 162 10.0
2019-Dec-10 15:35 162 10.0
2019-Dec-10 15:30 162 10.0
2019-Dec-10 15:25 162 10.0
2019-Dec-10 15:15 162 10.0
2019-Dec-10 15:10 162 10.0
2019-Dec-10 15:05 162 10.0
2019-Dec-10 15:00 162 10.0
2019-Dec-10 14:55 162 10.0
2019-Dec-10 14:50 162 10.0
2019-Dec-10 14:45 162 10.0
2019-Dec-10 14:40 162 10.0
2019-Dec-10 14:35 162 10.0
2019-Dec-10 14:25 162 10.6
2019-Dec-10 14:20 162 10.0
2019-Dec-10 14:05 162 10.0
2019-Dec-10 13:55 162 10.0
2019-Dec-10 13:45 162 10.0
2019-Dec-10 13:35 162 10.0
2019-Dec-10 13:30 162 10.0
2019-Dec-10 13:25 162 10.0
2019-Dec-10 13:20 162 10.0
2019-Dec-10 13:05 162 10.0
2019-Dec-10 12:55 162 10.0
2019-Dec-10 12:50 162 10.0
2019-Dec-10 12:40 162 10.6
2019-Dec-10 12:25 162 10.0
2019-Dec-10 12:20 162 10.0
2019-Dec-10 12:05 162 10.0
2019-Dec-10 12:00 162 10.0
2019-Dec-10 11:50 162 10.0
2019-Dec-10 11:45 162 10.6
2019-Dec-10 11:40 162 10.6
2019-Dec-10 11:35 162 10.6
2019-Dec-10 11:20 162 10.6
2019-Dec-10 11:10 162 10.6
2019-Dec-10 11:05 162 10.6
2019-Dec-10 11:00 162 10.6
2019-Dec-10 10:55 162 10.6
2019-Dec-10 10:40 162 10.6
2019-Dec-10 10:30 162 10.6
2019-Dec-10 10:25 162 10.6
2019-Dec-10 10:10 162 10.6
2019-Dec-10 10:05 162 10.6
2019-Dec-10 09:55 162 10.6
2019-Dec-10 09:50 162 10.6
2019-Dec-10 09:45 162 10.6
2019-Dec-10 09:40 162 10.6
2019-Dec-10 09:35 162 10.6
2019-Dec-10 09:30 162 10.6
2019-Dec-10 09:20 162 10.6
2019-Dec-10 09:15 162 10.6
2019-Dec-10 09:10 162 10.6
2019-Dec-10 09:05 162 10.6
2019-Dec-10 08:40 162 10.6
2019-Dec-10 08:30 162 10.6
2019-Dec-10 08:10 162 10.6
2019-Dec-10 08:05 162 10.6
2019-Dec-10 08:00 162 10.6
2019-Dec-10 07:55 162 10.6
2019-Dec-10 07:50 162 10.6
2019-Dec-10 07:35 162 10.6
2019-Dec-10 07:20 162 10.6
2019-Dec-10 07:15 162 10.6
2019-Dec-10 07:10 162 10.6
2019-Dec-10 07:00 162 10.6
2019-Dec-10 06:50 162 10.6
2019-Dec-10 06:45 162 10.6
2019-Dec-10 06:35 162 10.6
2019-Dec-10 06:30 162 10.6
2019-Dec-10 06:20 162 10.6
2019-Dec-10 06:10 162 10.6
2019-Dec-10 05:55 162 10.6
2019-Dec-10 05:45 162 10.6
2019-Dec-10 05:40 162 10.6
2019-Dec-10 05:30 162 10.6
2019-Dec-10 05:25 162 10.6
2019-Dec-10 05:10 162 10.6
2019-Dec-10 04:55 162 10.6
2019-Dec-10 04:30 162 10.6
2019-Dec-10 04:25 162 10.6
2019-Dec-10 04:20 162 10.6
2019-Dec-10 04:15 162 10.6
2019-Dec-10 04:00 162 10.6
2019-Dec-10 03:50 162 10.6
2019-Dec-10 03:45 162 10.6
2019-Dec-10 03:30 162 11.1
2019-Dec-10 03:25 162 11.1
2019-Dec-10 03:20 162 11.1
2019-Dec-10 03:10 162 11.1
2019-Dec-10 03:00 162 11.1
2019-Dec-10 02:55 162 11.1
2019-Dec-10 02:50 162 11.1
2019-Dec-10 02:40 162 11.1
2019-Dec-10 02:35 162 11.1
2019-Dec-10 02:20 162 11.1
2019-Dec-10 02:10 162 11.7
2019-Dec-10 02:05 162 11.7
2019-Dec-10 02:00 162 11.7
2019-Dec-10 01:55 162 11.7
2019-Dec-10 01:45 162 11.7
2019-Dec-10 01:35 162 11.7
2019-Dec-10 01:30 162 11.7
2019-Dec-10 01:20 162 11.7
2019-Dec-10 01:10 162 11.7
2019-Dec-10 01:05 162 11.7
2019-Dec-10 01:00 162 11.7
2019-Dec-10 00:30 162 11.7
2019-Dec-10 00:25 162 11.7
2019-Dec-10 00:15 162 11.7
2019-Dec-10 00:00 162 11.7
2019-Dec-09 23:55 162 11.7
2019-Dec-09 23:50 162 11.7
2019-Dec-09 23:45 162 11.7
2019-Dec-09 23:40 162 11.7
2019-Dec-09 23:35 162 11.7
2019-Dec-09 23:30 162 11.7
2019-Dec-09 23:15 162 11.7
2019-Dec-09 23:10 162 11.7
2019-Dec-09 23:05 162 11.7
2019-Dec-09 22:55 162 11.7
2019-Dec-09 22:50 162 11.7
2019-Dec-09 22:45 162 11.7
2019-Dec-09 22:40 162 11.7
2019-Dec-09 22:30 162 11.7
2019-Dec-09 22:20 162 11.7
2019-Dec-09 22:15 162 11.7
2019-Dec-09 22:05 162 11.7
2019-Dec-09 22:00 162 11.1
2019-Dec-09 21:55 162 11.1
2019-Dec-09 21:50 162 11.1
2019-Dec-09 21:45 162 11.1
2019-Dec-09 21:35 162 11.1
2019-Dec-09 21:25 162 11.1
2019-Dec-09 21:15 162 11.1
2019-Dec-09 21:10 162 11.1
2019-Dec-09 21:05 162 10.6
2019-Dec-09 21:00 162 10.6
2019-Dec-09 20:45 162 10.6
2019-Dec-09 20:35 162 10.6
2019-Dec-09 20:30 162 10.6
2019-Dec-09 20:25 162 10.6
2019-Dec-09 20:15 165 0 gusting 2 10.6
2019-Dec-09 20:05 182 10.6
2019-Dec-09 20:00 182 10.6
2019-Dec-09 19:55 182 10.6
2019-Dec-09 19:50 181 10.6
2019-Dec-09 19:45 182 10.0
2019-Dec-09 19:25 182 10.0
2019-Dec-09 19:20 182 10.0
2019-Dec-09 01:55 194 12.8
2019-Dec-09 01:50 194 12.8
2019-Dec-09 01:45 194 12.8
2019-Dec-09 01:35 194 13.3
2019-Dec-09 01:25 194 13.9
2019-Dec-09 01:15 194 14.4
2019-Dec-09 01:10 194 14.4
2019-Dec-09 00:45 194 15.0
2019-Dec-09 00:40 194 15.6
2019-Dec-09 00:25 194 15.6
2019-Dec-09 00:10 194 16.1
2019-Dec-09 00:05 194 16.1